Location: Dumpton Point
(51.3500°N, 1.4433°E)
Time: 15:01:51
(UTC+00:00)

Cosmos 2058 Rocket - Pass Details

Date: 09 April 2020
Orbit: 610 x 640 km, 82.5° (Epoch: 02 June)

Event Time Altitude Azimuth Distance (km) Brightness Sun altitude
Rises 20:31:40 0° 208° (SSW) 2,935 6.4 -16.3°
Reaches altitude 10° 20:34:01 10° 215° (SW) 2,030 5.7 -16.6°
Maximum altitude 20:38:18 42° 287° (WNW) 915 4.4 -17.1°
Drops below altitude 10° 20:42:36 10° 359° (N) 2,037 6.3 -17.7°
Sets 20:44:58 0° 6° (N) 2,946 7.0 -17.9°
